"Pseudo-MPEC" for ZV2F779

Created 2018 Nov 12 22:18:35 UT using Find_Orb

Click here for an explanation of pseudo-MPECs

 
 Astrometry: 
     ZV2F779  C2018 11 08.24471 02 31 02.64 +13 29 31.6          17.6 GVNEOCP703
     ZV2F779  C2018 11 08.24674502 32 26.05 +13 27 42.8          17.73iUNEOCPI41
     ZV2F779  C2018 11 08.24709302 32 28.49 +13 28 08.0          17.73iUNEOCPI41
     ZV2F779  C2018 11 08.25523 02 32 18.65 +13 42 02.9          17.9 GVNEOCP703
     ZV2F779  C2018 11 08.26049 02 32 56.34 +13 48 11.6          18.7 GVNEOCP703
     ZV2F779  C2018 11 08.26964 02 34 03.62 +13 59 03.3                VNEOCP703
     ZV2F779  C2018 11 08.26999 02 34 06.17 +13 59 27.8                VNEOCP703
     ZV2F779  C2018 11 08.27016 02 34 07.46 +13 59 40.1          17.9 GVNEOCP703
     ZV2F779  C2018 11 08.29774502 38 44.53 +14 28 15.5          17.91gUNEOCPI41
     ZV2F779  C2018 11 08.29809202 38 47.10 +14 28 40.9          17.91gUNEOCPI41

Station data:
(703) Catalina Sky Survey  (N32.417006 W110.732640)  US/Arizona.  Observers
   B. M. Africano, E. J. Christensen, G. A. Farneth, D. C. Fuls, A. R. Gibbs,
   A. D. Grauer, H. Groeller, J. A. Johnson, R. A. Kowalski, S. M. Larson, G.
   J. Leonard, R. L. Seaman, F. C. Shelly. 0.68 m Schmidt + 10K CCD.
(I41) Palomar Mountain--ZTF  (N33.357340 W116.859780)  US/California. 1.2-m
   f/2.44 Oschin Schmidt + CCD.

Orbital elements:  ZV2F779
   Perigee 2018 Nov 7.023923 +/- 0.028 TT =  0:34:26 (JD 2458429.523923)
Epoch 2018 Nov  8.0 TT = JDT 2458430.5                        AutoNEOCP
M 160.16863044 +/- 3.8              (J2000 equator)
n 164.09421697 +/- 0.86             Peri.  208.04061 +/- 1.0
a 71319.4505 +/- 248                Node     6.11857 +/- 0.014
e   0.6391432 +/- 0.00174           Incl.   26.68383 +/- 0.036
P3159.10m/2.194d           H 33.4   G  0.15   U 12.6  
q 25736.1039 +/- 106    Q 116902.797 +/- 488
From 10 observations 2018 Nov. 8 (76.9 min); mean residual 2".99
Residuals in arcseconds: 
181108 703  5.2+  4.0+    181108 703  8.7-  5.4-    181108 I41  .10-  .72-    
181108 I41  .28+  .73-    181108 703  2.1+  1.0+    181108 I41  .37-  .72+    
181108 I41  1.9-  1.0-    181108 703  2.2+  1.0+    
181108 703  1.1-  .09+    181108 703  2.9+  1.4+    

Ephemerides (geocentric):
Date (UTC) HH   RA              Dec         delta   r     elong  mag " sig PA
---- -- -- --  -------------   -----------  ------ ------ -----  --- ---- ---
2018 11 12 22  03 27 06.550   +19 46 33.41  104869 0.9904 175.7 18.0 1083  73
2018 11 12 23  03 37 14.526   +20 32 27.59  102239 0.9904 173.3 18.1 1050  74
2018 11 13 00  03 48 02.941   +21 18 30.30   99319 0.9904 170.7 18.1 1006  75
2018 11 13 01  03 59 40.033   +22 04 37.06   96099 0.9903 167.9 18.2  945  76
2018 11 13 02  04 12 16.145   +22 50 37.85   92566 0.9903 165.0 18.2  864  78
2018 11 13 03  04 26 04.508   +23 36 13.76   88706 0.9902 161.8 18.2  758  80
2018 11 13 04  04 41 22.359   +24 20 51.44   84502 0.9902 158.2 18.2  617  82
2018 11 13 05  04 58 32.619   +25 03 33.49   79938 0.9901 154.3 18.2  430  86
2018 11 13 06  05 18 06.455   +25 42 41.29   74994 0.9901 149.9 18.2  178  96
2018 11 13 07  05 40 47.259   +26 15 23.39   69650 0.9900 144.8 18.2  185  71
2018 11 13 08  06 07 36.970   +26 36 34.77   63889 .98995 138.8 18.2  683  84
2018 11 13 09  06 40 06.198   +26 36 55.56   57704 .98988 131.6 18.1 1421  90
2018 11 13 10  07 20 30.221   +25 58 39.75   51111 .98979 122.6 18.1 2559  95
2018 11 13 11  08 12 12.620   +24 06 48.53   44192 .98970 110.8 18.2 4405 101
2018 11 13 12  09 20 12.974   +19 52 10.09   37194 .98961  94.5 18.4 7520 108
2018 11 13 13  10 51 14.460   +11 13 01.55   30788 .98951  71.0 19.1 210' 114
2018 11 13 14  12 52 04.905   -03 28 53.07   26514 .98943  37.6 21?? 305' 116
2018 11 13 15  15 20 14.819   -19 14 04.45   26423 .98938   1.9 62?? 312' 109
2018 11 13 16  17 44 17.499   -26 19 11.92   30572 .98938  35.6 22?? 228'  95
2018 11 13 17  19 30 44.287   -25 42 01.11   36932 .98942  59.5 20?? 8985  83
2018 11 13 18  20 41 53.016   -22 30 26.66   43925 .98946  75.9 19.6 5896  76
2018 11 13 19  21 30 57.542   -19 00 45.79   50855 .98951  87.9 19.3 3948  72
2018 11 13 20  22 06 56.839   -15 48 40.62   57464 .98956  97.0 19.2 2672  69
2018 11 13 21  22 34 50.235   -12 59 32.82   63666 .98961 104.3 19.2 1794  68
2018 11 13 22  22 57 25.487   -10 31 13.55   69443 .98965 110.3 19.2 1162  68
2018 11 13 23  23 16 21.595   -08 20 16.18   74802 .98970 115.4 19.2  689  69
2018 11 14 00  23 32 40.299   -06 23 30.11   79761 .98974 119.8 19.2  324  72
2018 11 14 01  23 47 02.067   -04 38 18.68   84339 .98978 123.8 19.2 52.1 118
2018 11 14 02  23 59 54.583   -03 02 37.33   88555 .98981 127.3 19.2  209  53
2018 11 14 03  00 11 37.502   -01 34 47.64   92427 .98985 130.6 19.2  403  58
2018 11 14 04  00 22 25.227   -00 13 31.49   95971 .98988 133.5 19.2  566  60
2018 11 14 05  00 32 28.614   +01 02 13.67   99202 .98990 136.3 19.2  706  61
2018 11 14 06  00 41 56.052   +02 13 18.43  102131 .98993 138.9 19.2  827  61
2018 11 14 07  00 50 54.173   +03 20 24.19  104770 .98995 141.4 19.2  933  62
2018 11 14 08  00 59 28.334   +04 24 05.18  107128 .98997 143.7 19.1 1026  62
2018 11 14 09  01 07 42.952   +05 24 50.02  109214 .98999 146.0 19.1 1108  63
2018 11 14 10  01 15 41.738   +06 23 02.89  111035 0.9900 148.1 19.1 1182  63
2018 11 14 11  01 23 27.877   +07 19 04.46  112596 0.9900 150.2 19.1 1249  63
2018 11 14 12  01 31 04.157   +08 13 12.52  113903 0.9900 152.3 19.0 1309  64
2018 11 14 13  01 38 33.069   +09 05 42.58  114959 0.9900 154.3 19.0 1363  64
2018 11 14 14  01 45 56.885   +09 56 48.29  115769 0.9900 156.2 18.9 1413  65
2018 11 14 15  01 53 17.727   +10 46 41.73  116334 0.9901 158.2 18.9 1458  65
2018 11 14 16  02 00 37.622   +11 35 33.75  116656 0.9901 160.1 18.8 1500  66
2018 11 14 17  02 07 58.548   +12 23 34.12  116736 0.9901 162.0 18.8 1538  66
2018 11 14 18  02 15 22.483   +13 10 51.77  116574 0.9900 164.0 18.7 1573  66
2018 11 14 19  02 22 51.449   +13 57 34.86  116170 0.9900 165.9 18.6 1605  67
2018 11 14 20  02 30 27.560   +14 43 50.93  115523 0.9900 167.9 18.6 1634  68
2018 11 14 21  02 38 13.071   +15 29 46.94  114631 0.9900 169.8 18.5 1660  68